TOM3WB EGSH-LEPA

Flight info

Callsign TOM3WB
Flight time N/A
Altitude 36000
Route BKY DCT LAM L980 MID/N0443F390 L151 SITET UN859 SOPIL DCT BALAN DCT EVPOK DCT NARAK DCT GAI DCT LOMRA DCT ROCAN DCT IBRAP N13 LORES
Aircraft B738/M-SDE2E3FGHIRWXY/LB1

Departure

Time 2026-05-06 17:12
Airport Norwich Airport (EGSH)

Arrival

Time N/A
Airport Palma de Mallorca Airport (LEPA)
Time Latitude Longitude Altitude Speed Heading
2026-05-06 16:59 52.66976 1.27901 120 ft 0 kts 188°
2026-05-06 17:05 52.66988 1.27904 116 ft 4 kts 194°
2026-05-06 17:06 52.67012 1.27921 115 ft 4 kts 220°
2026-05-06 17:06 52.67026 1.27953 117 ft 4 kts 268°
2026-05-06 17:06 52.67025 1.27967 119 ft 1 kts 281°
2026-05-06 17:08 52.67029 1.27934 120 ft 8 kts 282°
2026-05-06 17:08 52.67063 1.27803 119 ft 16 kts 315°
2026-05-06 17:09 52.67152 1.27853 118 ft 17 kts 41°
2026-05-06 17:09 52.67259 1.28004 119 ft 23 kts 36°
2026-05-06 17:09 52.67402 1.28177 116 ft 27 kts 36°
2026-05-06 17:09 52.67547 1.28347 119 ft 21 kts 27°
2026-05-06 17:10 52.67594 1.28274 118 ft 10 kts 269°
2026-05-06 17:10 52.67593 1.28138 118 ft 16 kts 269°
2026-05-06 17:10 52.67590 1.27892 120 ft 27 kts 270°
2026-05-06 17:10 52.67589 1.27565 122 ft 28 kts 269°
2026-05-06 17:11 52.67577 1.27257 120 ft 26 kts 249°
2026-05-06 17:11 52.67531 1.27001 121 ft 19 kts 276°
2026-05-06 17:11 52.67585 1.26980 122 ft 8 kts 68°
2026-05-06 17:11 52.67585 1.27026 122 ft 0 kts 89°
2026-05-06 17:12 52.67588 1.27346 120 ft 72 kts 89°
2026-05-06 17:12 52.67599 1.28658 140 ft 152 kts 86°
2026-05-06 17:12 52.67624 1.30521 1003 ft 164 kts 85°
2026-05-06 17:13 52.67608 1.32366 2234 ft 164 kts 89°
2026-05-06 17:13 52.67552 1.34414 2765 ft 195 kts 89°
2026-05-06 17:13 52.67497 1.36784 3254 ft 210 kts 89°
2026-05-06 17:13 52.67438 1.39181 4068 ft 210 kts 89°
2026-05-06 17:14 52.67381 1.41608 4757 ft 215 kts 89°
2026-05-06 17:14 52.67325 1.44199 5045 ft 239 kts 89°
2026-05-06 17:14 52.66998 1.46948 5492 ft 255 kts 116°
2026-05-06 17:14 52.65725 1.48979 6156 ft 260 kts 155°
2026-05-06 17:15 52.63962 1.49415 6844 ft 260 kts 193°
2026-05-06 17:15 52.62290 1.48227 7387 ft 271 kts 218°
2026-05-06 17:15 52.60859 1.46156 8140 ft 277 kts 232°
2026-05-06 17:15 52.59691 1.43624 9049 ft 279 kts 237°
2026-05-06 17:16 52.58607 1.40993 9939 ft 283 kts 238°
2026-05-06 17:16 52.57865 1.39164 10439 ft 289 kts 238°
2026-05-06 17:16 52.56697 1.36300 10714 ft 315 kts 237°
2026-05-06 17:16 52.55000 1.32219 11365 ft 334 kts 237°
2026-05-06 17:17 52.53671 1.29082 12264 ft 334 kts 236°
2026-05-06 17:17 52.52327 1.25943 13101 ft 339 kts 236°
2026-05-06 17:17 52.50955 1.22762 13896 ft 343 kts 236°
2026-05-06 17:17 52.49563 1.19554 14662 ft 346 kts 235°
2026-05-06 17:18 52.48612 1.17369 15157 ft 349 kts 235°
2026-05-06 17:18 52.47211 1.14158 15880 ft 352 kts 235°
2026-05-06 17:18 52.45779 1.10881 16613 ft 356 kts 235°
2026-05-06 17:18 52.44327 1.07566 17321 ft 360 kts 235°
2026-05-06 17:19 52.42856 1.04212 17996 ft 365 kts 235°
2026-05-06 17:19 52.41368 1.00826 18666 ft 368 kts 235°
2026-05-06 17:19 52.39865 0.97409 19294 ft 371 kts 235°
2026-05-06 17:19 52.38353 0.93976 19938 ft 373 kts 235°
2026-05-06 17:20 52.36828 0.90518 20536 ft 377 kts 235°
2026-05-06 17:20 52.35285 0.87024 21127 ft 381 kts 235°
2026-05-06 17:20 52.33729 0.83507 21727 ft 384 kts 235°
2026-05-06 17:20 52.32157 0.79957 22323 ft 387 kts 235°
2026-05-06 17:21 52.30572 0.76383 22895 ft 390 kts 235°
2026-05-06 17:21 52.28973 0.72782 23457 ft 393 kts 235°
2026-05-06 17:21 52.27358 0.69152 23931 ft 396 kts 234°
2026-05-06 17:21 52.25771 0.65589 24424 ft 398 kts 234°
2026-05-06 17:22 52.24037 0.62052 24889 ft 401 kts 226°
2026-05-06 17:22 52.21922 0.59076 25349 ft 404 kts 216°
2026-05-06 17:22 52.19574 0.56533 25831 ft 406 kts 214°
2026-05-06 17:22 52.17197 0.54026 26282 ft 408 kts 213°
2026-05-06 17:23 52.14804 0.51511 26717 ft 411 kts 213°
2026-05-06 17:23 52.12397 0.48973 27137 ft 413 kts 213°
2026-05-06 17:23 52.09979 0.46412 27571 ft 415 kts 214°
2026-05-06 17:23 52.07587 0.43868 27993 ft 417 kts 213°
2026-05-06 17:24 52.05154 0.41276 28397 ft 419 kts 213°
2026-05-06 17:24 52.02708 0.38668 28794 ft 422 kts 213°
2026-05-06 17:24 52.00249 0.36048 29185 ft 424 kts 213°
2026-05-06 17:24 51.97780 0.33418 29586 ft 425 kts 213°
2026-05-06 17:25 51.95309 0.30790 30103 ft 423 kts 213°
2026-05-06 17:25 51.92855 0.28183 30601 ft 420 kts 213°
2026-05-06 17:25 51.90418 0.25599 31043 ft 419 kts 213°
2026-05-06 17:25 51.87978 0.23014 31407 ft 419 kts 213°
2026-05-06 17:26 51.85533 0.20428 31786 ft 419 kts 213°
2026-05-06 17:26 51.83170 0.17932 32201 ft 418 kts 214°
2026-05-06 17:26 51.80879 0.15515 32580 ft 417 kts 214°
2026-05-06 17:26 51.78451 0.12957 32945 ft 417 kts 214°
2026-05-06 17:27 51.76021 0.10400 33310 ft 417 kts 214°
2026-05-06 17:27 51.73594 0.07849 33693 ft 416 kts 214°
2026-05-06 17:27 51.71174 0.05309 34062 ft 415 kts 214°
2026-05-06 17:27 51.68758 0.02776 34349 ft 415 kts 214°
2026-05-06 17:28 51.66392 0.00300 34572 ft 417 kts 214°